Volver al catálogo

STARLINK-36584

ActivoComunicacionesSSO
NORAD 67547·PAYLOAD·🇺🇸 United States

Lanzado Jan 22, 2026 desde Vandenberg Space Force Base

Loading…

Próximos Pases (próximas 24 horas)

TLE

ActualizadoSource: CelesTrak SupGP

Época: Sep 14, 2026, 21:04 UTC

1 67547C 26014R   26257.87826389 -.00033602  00000+0 -10435-2 0  2572
2 67547  97.2847 143.3796 0001799  90.5986 151.0935 15.33443803    13

Sigue STARLINK-36584 en tiempo real con AllMySat

Download on the App Store